Beaumont, TX

7:11 PM CDT on October 20, 2017 (GMT -0500)
Southeast Texas Regional

Weather History for KBPT - January, 2013

Change the Weather History Date:

Saturday, January 26, 2013

  Actual Average Record
Temperature  
Mean Temperature 64 °F 53 °F  
Max Temperature 76 °F 63 °F 83 °F (1909)
Min Temperature 52 °F 44 °F 23 °F (1940)
Degree Days  
Heating Degree Days 1 12  
Month to date heating degree days 310 334  
Since 1 July heating degree days 756 884  
Cooling Degree Days 0 0  
Month to date cooling degree days 8 0  
Year to date cooling degree days 8 0  
Growing Degree Days 9 (Base 50)    
Moisture  
Dew Point 57 °F    
Average Humidity 79    
Maximum Humidity 100    
Minimum Humidity 58    
Precipitation  
Precipitation 0.00 in 0.15 in 2.90 in (1994)
Month to date precipitation 8.10 4.47  
Year to date precipitation 8.10 4.47  
Snow  
Snow 0.00 in 0.00 in 0.00 in ()
Month to date snowfall 0.0 0.0  
Since 1 July snowfall 0.0 T  
Snow Depth 0.00 in    
Sea Level Pressure  
Sea Level Pressure 30.17 in    
Wind  
Wind Speed 6 mph (SE)    
Max Wind Speed 16 mph    
Max Gust Speed 21 mph    
Visibility 4 miles    
Events Fog    
T = Trace of Precipitation, MM = Missing Value Source: NWS Daily Summary

Daily Weather History Graph

Daily Weather History Graph

Search for Another Location

Airport or City:

Trip Planner

Search our weather history database for the weather conditions in past years. The results will help you decide how hot, cold, wet, or windy it might be!

Date:

Astronomy

Jan. 26, 2013 Rise Set
Actual Time 7:09 AM CST 5:48 PM CST
Civil Twilight 6:43 AM CST 6:13 PM CST
Nautical Twilight 6:15 AM CST 6:42 PM CST
Astronomical Twilight 5:46 AM CST 7:11 PM CST
Moon 5:40 PM CST (1/26) 6:29 AM CST (1/26)
Length of Visible Light 11h 29m
Length of Day
10h 39m
Full, 100% of the Moon is Illuminated
Jan 26
Full
Jan 26
Full
Feb 3
Last Quarter
Feb 10
New
Feb 17
First Quarter

Hourly Weather History & Observations

Time (CST) Temp. Dew Point Humidity Pressure Visibility Wind Dir Wind Speed Gust Speed Precip Events Conditions
12:03 AM 55.4 °F 53.6 °F 94% 30.16 in 1.8 mi Calm Calm - N/A   Mostly Cloudy
12:08 AM 55.4 °F 55.4 °F 100% 30.16 in 1.8 mi Calm Calm - N/A   Mostly Cloudy
12:15 AM 55.4 °F 55.4 °F 100% 30.16 in 0.8 mi Calm Calm - N/A   Mist
12:19 AM 55.4 °F 55.4 °F 100% 30.16 in 1.8 mi Calm Calm - N/A   Mostly Cloudy
12:21 AM 57.2 °F 55.4 °F 94% 30.16 in 3.0 mi Calm Calm - N/A   Overcast
12:32 AM 55.4 °F 55.4 °F 100% 30.16 in 2.5 mi Calm Calm - N/A   Mostly Cloudy
12:43 AM 55.4 °F 55.4 °F 100% 30.17 in 2.0 mi Calm Calm - N/A   Mostly Cloudy
12:51 AM 57.2 °F 55.4 °F 94% 30.17 in 8.0 mi Calm Calm - N/A   Mostly Cloudy
12:53 AM 57.0 °F 55.9 °F 96% 30.17 in 3.0 mi Calm Calm - N/A   Mostly Cloudy
12:55 AM 57.2 °F 55.4 °F 94% 30.17 in 1.5 mi Calm Calm - N/A   Mostly Cloudy
12:59 AM 57.2 °F 57.2 °F 100% 30.16 in 0.8 mi Calm Calm - N/A   Mostly Cloudy
1:08 AM 57.2 °F 57.2 °F 100% 30.16 in 0.8 mi Calm Calm - N/A   Mostly Cloudy
1:13 AM 55.4 °F 55.4 °F 100% 30.17 in 1.5 mi Calm Calm - N/A   Mostly Cloudy
1:15 AM 57.2 °F 55.4 °F 94% 30.17 in 3.0 mi Calm Calm - N/A   Scattered Clouds
1:27 AM 57.2 °F 57.2 °F 100% 30.17 in 5.0 mi Calm Calm - N/A   Mostly Cloudy
1:38 AM 55.4 °F 55.4 °F 100% 30.17 in 5.0 mi Calm Calm - N/A   Mostly Cloudy
1:53 AM 55.9 °F 55.9 °F 100% 30.17 in 2.5 mi Calm Calm - N/A   Mostly Cloudy
2:01 AM 55.4 °F 55.4 °F 100% 30.17 in 5.0 mi Calm Calm - N/A   Scattered Clouds
2:14 AM 57.2 °F 55.4 °F 94% 30.17 in 2.0 mi Calm Calm - N/A   Clear
2:23 AM 57.2 °F 55.4 °F 94% 30.17 in 6.0 mi Calm Calm - N/A   Clear
2:46 AM 55.4 °F 55.4 °F 100% 30.17 in 1.5 mi East 3.5 mph - N/A   Scattered Clouds
2:53 AM 55.9 °F 55.0 °F 97% 30.17 in 1.0 mi Calm Calm - N/A   Scattered Clouds
2:55 AM 55.4 °F 55.4 °F 100% 30.16 in 1.5 mi East 3.5 mph - N/A   Scattered Clouds
3:03 AM 55.4 °F 55.4 °F 100% 30.16 in 2.5 mi Calm Calm - N/A   Mostly Cloudy
3:07 AM 55.4 °F 55.4 °F 100% 30.16 in 1.2 mi Calm Calm - N/A   Mostly Cloudy
3:14 AM 55.4 °F 55.4 °F 100% 30.16 in 0.2 mi Calm Calm - N/A Fog Fog
3:53 AM 55.0 °F 55.0 °F 100% 30.16 in 0.5 mi Calm Calm - N/A Fog Fog
4:01 AM 55.4 °F 55.4 °F 100% 30.16 in 0.2 mi Calm Calm - N/A Fog Fog
4:53 AM 55.0 °F 54.0 °F 96% 30.15 in 0.2 mi ESE 3.5 mph - N/A Fog Fog
5:09 AM 53.6 °F 53.6 °F 100% 30.15 in 0.2 mi ESE 3.5 mph - N/A Fog Fog
5:24 AM 53.6 °F 53.6 °F 100% 30.15 in 0.2 mi Calm Calm - N/A Fog Fog
5:53 AM 54.0 °F 54.0 °F 100% 30.16 in 0.2 mi Calm Calm - N/A Fog Fog
6:10 AM 53.6 °F 53.6 °F 100% 30.17 in 0.5 mi Calm Calm - N/A Fog Fog
6:41 AM 55.4 °F 55.4 °F 100% 30.18 in 0.2 mi Calm Calm - N/A Fog Fog
6:53 AM 55.0 °F 55.0 °F 100% 30.18 in 0.2 mi Calm Calm - N/A Fog Fog
7:53 AM 55.0 °F 55.0 °F 100% 30.18 in 0.2 mi ESE 3.5 mph - N/A Fog Fog
8:00 AM 55.4 °F 55.4 °F 100% 30.18 in 0.2 mi Calm Calm - N/A Fog Fog
8:51 AM 62.6 °F 62.6 °F 100% 30.20 in 0.8 mi Calm Calm - N/A   Overcast
8:53 AM 62.1 °F 62.1 °F 100% 30.20 in 1.2 mi Calm Calm - N/A   Overcast
8:56 AM 62.6 °F 62.6 °F 100% 30.20 in 2.0 mi Calm Calm - N/A   Overcast
9:05 AM 64.4 °F 62.6 °F 94% 30.20 in 2.5 mi Calm Calm - N/A   Mostly Cloudy
9:25 AM 66.2 °F 64.4 °F 94% 30.21 in 5.0 mi SSE 3.5 mph - N/A   Mostly Cloudy
9:46 AM 66.2 °F 64.4 °F 94% 30.21 in 10.0 mi South 6.9 mph - N/A   Scattered Clouds
9:53 AM 66.9 °F 64.9 °F 93% 30.22 in 10.0 mi South 4.6 mph - N/A   Scattered Clouds
10:26 AM 69.8 °F 62.6 °F 78% 30.22 in 10.0 mi SSW 5.8 mph - N/A   Mostly Cloudy
10:53 AM 71.1 °F 62.1 °F 73% 30.22 in 10.0 mi South 10.4 mph - N/A   Mostly Cloudy
11:53 AM 73.9 °F 60.1 °F 62% 30.19 in 10.0 mi South 11.5 mph - N/A   Mostly Cloudy
12:53 PM 73.9 °F 59.0 °F 59% 30.17 in 10.0 mi South 11.5 mph - N/A   Mostly Cloudy
1:00 PM 75.2 °F 59.0 °F 57% 30.17 in 10.0 mi SSW 9.2 mph - N/A   Mostly Cloudy
1:53 PM 75.0 °F 59.0 °F 57% 30.15 in 10.0 mi SSE 11.5 mph 19.6 mph N/A   Scattered Clouds
2:53 PM 75.0 °F 60.1 °F 60% 30.14 in 10.0 mi South 15.0 mph - N/A   Scattered Clouds
3:53 PM 73.0 °F 59.0 °F 61% 30.14 in 10.0 mi SSE 12.7 mph - N/A   Scattered Clouds
4:53 PM 71.1 °F 59.0 °F 66% 30.14 in 10.0 mi South 8.1 mph - N/A   Partly Cloudy
5:53 PM 66.0 °F 57.9 °F 75% 30.15 in 10.0 mi SSE 8.1 mph - N/A   Clear
6:53 PM 61.0 °F 57.9 °F 90% 30.16 in 10.0 mi ESE 6.9 mph - N/A   Clear
7:53 PM 59.0 °F 57.0 °F 93% 30.17 in 10.0 mi ESE 5.8 mph - N/A   Clear
8:53 PM 59.0 °F 57.0 °F 93% 30.17 in 10.0 mi ESE 6.9 mph - N/A   Clear
9:53 PM 57.9 °F 55.9 °F 93% 30.18 in 10.0 mi ESE 4.6 mph - N/A   Clear
10:53 PM 59.0 °F 57.0 °F 93% 30.18 in 10.0 mi ESE 8.1 mph - N/A   Clear
11:53 PM 57.0 °F 55.9 °F 96% 30.17 in 10.0 mi ESE 5.8 mph - N/A   Clear